Weather History for KDAB - January, 2014

Change the Weather History Date:

Sunday, January 19, 2014

  Actual Average Record
Temperature  
Mean Temperature 50 °F 58 °F  
Max Temperature 66 °F 68 °F 85 °F (1943)
Min Temperature 33 °F 47 °F 25 °F (1977)
Degree Days  
Heating Degree Days 15 8  
Month to date heating degree days 168 152  
Since 1 July heating degree days 272 418  
Cooling Degree Days 0 1  
Month to date cooling degree days 23 19  
Year to date cooling degree days 23 19  
Moisture  
Dew Point 39 °F    
Average Humidity 67    
Maximum Humidity 93    
Minimum Humidity 40    
Precipitation  
Precipitation T in 0.08 in 1.40 in (1978)
Month to date precipitation 1.31 1.64  
Year to date precipitation 1.31 1.64  
Sea Level Pressure  
Sea Level Pressure 30.16 in    
Wind  
Wind Speed 6 mph (SW)    
Max Wind Speed 20 mph    
Max Gust Speed 24 mph    
Visibility 10 miles    
Events Rain    
T = Trace of Precipitation, MM = Missing Value Source: NWS Daily Summary

Daily Weather History Graph

Daily Weather History Graph

Search for Another Location

Airport or City:

Trip Planner

Search our weather history database for the weather conditions in past years. The results will help you decide how hot, cold, wet, or windy it might be!

Date:

Astronomy

Jan. 19, 2014 Rise Set
Actual Time 7:18 AM EST 5:51 PM EST
Civil Twilight 6:53 AM EST 6:17 PM EST
Nautical Twilight 6:24 AM EST 6:46 PM EST
Astronomical Twilight 5:55 AM EST 7:14 PM EST
Moon 9:08 PM EST (1/19) 9:05 AM EST (1/19)
Length of Visible Light 11h 24m
Length of Day
10h 33m
Waning Gibbous, 89% of the Moon is Illuminated
Jan 19
Waning Gibbous
Jan 24
Last Quarter
Jan 30
New
Feb 6
First Quarter
Feb 14
Full

Hourly Weather History & Observations

Time (EST) Temp. Windchill Dew Point Humidity Pressure Visibility Wind Dir Wind Speed Gust Speed Precip Events Conditions
12:53 AM 36.0 °F - 28.0 °F 73% 30.19 in 10.0 mi Calm Calm - N/A   Clear
1:53 AM 36.0 °F 33.3 °F 27.0 °F 70% 30.19 in 10.0 mi West 3.5 mph - N/A   Clear
2:53 AM 35.1 °F 32.2 °F 27.0 °F 72% 30.18 in 10.0 mi SW 3.5 mph - N/A   Clear
3:53 AM 34.0 °F 31.0 °F 28.0 °F 79% 30.17 in 10.0 mi SW 3.5 mph - N/A   Clear
4:53 AM 34.0 °F 31.0 °F 28.0 °F 79% 30.17 in 10.0 mi SSW 3.5 mph - N/A   Clear
5:53 AM 34.0 °F 31.0 °F 28.0 °F 79% 30.18 in 10.0 mi SSW 3.5 mph - N/A   Clear
6:53 AM 34.0 °F - 28.9 °F 82% 30.19 in 10.0 mi Calm Calm - N/A   Partly Cloudy
7:53 AM 35.1 °F - 30.9 °F 85% 30.21 in 10.0 mi Calm Calm - N/A   Clear
8:53 AM 44.1 °F 40.8 °F 35.1 °F 71% 30.22 in 10.0 mi SW 5.8 mph - N/A   Clear
9:53 AM 54.0 °F - 39.0 °F 57% 30.22 in 10.0 mi SW 8.1 mph - N/A   Clear
10:53 AM 60.1 °F - 41.0 °F 49% 30.21 in 10.0 mi SW 11.5 mph - N/A   Partly Cloudy
11:53 AM 64.0 °F - 39.0 °F 40% 30.21 in 10.0 mi West 15.0 mph 23.0 mph N/A   Mostly Cloudy
12:53 PM 66.0 °F - 41.0 °F 40% 30.16 in 10.0 mi SW 9.2 mph - N/A   Mostly Cloudy
1:53 PM 62.1 °F - 42.1 °F 48% 30.15 in 10.0 mi West 13.8 mph - 0.00 in Rain Light Rain
2:53 PM 60.1 °F - 46.0 °F 60% 30.13 in 10.0 mi WSW 10.4 mph - 0.00 in   Mostly Cloudy
3:53 PM 63.0 °F - 46.9 °F 56% 30.11 in 10.0 mi SW 10.4 mph - N/A   Scattered Clouds
4:53 PM 63.0 °F - 46.9 °F 56% 30.10 in 10.0 mi SW 11.5 mph - N/A   Partly Cloudy
5:53 PM 60.1 °F - 48.0 °F 64% 30.11 in 10.0 mi SW 6.9 mph - N/A   Partly Cloudy
6:53 PM 55.9 °F - 48.0 °F 75% 30.11 in 10.0 mi SSW 3.5 mph - N/A   Partly Cloudy
7:53 PM 53.1 °F - 46.9 °F 80% 30.12 in 10.0 mi WSW 3.5 mph - N/A   Clear
8:53 PM 50.0 °F - 46.0 °F 86% 30.13 in 10.0 mi Calm Calm - N/A   Clear
9:53 PM 48.0 °F - 46.0 °F 93% 30.14 in 10.0 mi SW 3.5 mph - N/A   Clear
10:53 PM 48.9 °F - 46.0 °F 90% 30.14 in 10.0 mi WSW 3.5 mph - N/A   Clear
11:53 PM 48.0 °F - 45.0 °F 89% 30.13 in 10.0 mi Calm Calm - N/A   Clear